Location: Artiguedieu
(43.5000°N, 0.5454°E)
Time: 06:33:51
(UTC+00:00)

Courier 1B - All Passes

Search period start: 31 July 2021 00:00
Search period end: 10 August 2021 00:00
Orbit: 962 x 1209 km, 28.3° (Epoch: 30 July)

Date Brightness Start Highest point End Pass type
(mag) Time Alt. Az. Time Alt. Az. Time Alt. Az.
31 Jul - 00:18:24 10° SW 00:21:28 13° SSW 00:24:29 10° S night (unlit)
31 Jul - 17:46:00 10° S 17:48:35 12° SSE 17:51:09 10° SE daylight
31 Jul - 19:35:59 10° SW 19:41:39 22° S 19:47:12 10° ESE daylight
31 Jul - 21:28:59 10° SW 21:34:53 24° S 21:40:35 10° SE visible
31 Jul - 23:23:38 10° SW 23:27:57 16° SSW 23:32:08 10° SSE visible
01 Aug - 18:42:39 10° SSW 18:48:00 20° SSE 18:53:15 10° ESE daylight
01 Aug - 20:35:10 10° SW 20:41:13 25° S 20:47:06 10° SE visible
01 Aug - 22:29:16 10° WSW 22:34:23 19° SSW 22:39:19 10° SSE visible
02 Aug - 17:49:35 10° SSW 17:54:21 17° SSE 17:59:05 10° ESE daylight
02 Aug - 19:41:27 10° SW 19:47:32 25° S 19:53:29 10° SE visible
02 Aug - 21:35:08 10° WSW 21:40:46 22° SSW 21:46:14 10° SE visible
02 Aug - 23:31:31 10° SW 23:33:42 11° SSW 23:35:52 10° S visible
03 Aug - 16:56:53 10° S 17:00:43 14° SSE 17:04:34 10° SE daylight
03 Aug - 18:47:53 10° SW 18:53:51 24° S 18:59:45 10° ESE daylight
03 Aug - 20:41:08 10° WSW 20:47:07 24° S 20:52:56 10° SE visible
03 Aug - 22:36:14 10° SW 22:40:10 15° SSW 22:44:01 10° S visible
04 Aug - 16:05:06 10° S 16:07:07 11° SSE 16:09:10 10° SE daylight
04 Aug - 17:54:28 10° SW 18:00:09 22° SSE 18:05:50 10° ESE daylight
04 Aug - 19:47:17 10° SW 19:53:25 25° S 19:59:28 10° SE visible
04 Aug - 21:41:41 10° WSW 21:46:36 18° SSW 21:51:22 10° SSE visible
05 Aug - 17:01:17 10° SSW 17:06:29 20° SSE 17:11:44 10° ESE daylight
05 Aug - 18:53:32 10° SW 18:59:43 26° S 19:05:51 10° SE daylight
05 Aug - 20:47:27 10° WSW 20:52:58 21° SSW 20:58:22 10° SSE visible
06 Aug - 16:08:22 10° SSW 16:12:52 17° SSE 16:17:24 10° SE daylight
06 Aug - 17:59:56 10° SW 18:06:01 25° S 18:12:06 10° ESE daylight
06 Aug - 19:53:25 10° WSW 19:59:18 23° S 20:05:06 10° SE visible
06 Aug - 21:49:07 10° SW 21:52:20 13° SSW 21:55:31 10° S visible
07 Aug - 15:15:58 10° S 15:19:16 13° SSE 15:22:37 10° SE daylight
07 Aug - 17:06:29 10° SW 17:12:19 23° S 17:18:13 10° ESE daylight
07 Aug - 18:59:31 10° WSW 19:05:36 25° S 19:11:40 10° SE daylight
07 Aug - 20:54:17 10° SW 20:58:45 16° SSW 21:03:10 10° SSE visible
08 Aug - 16:13:14 10° SSW 16:18:39 21° SSE 16:24:11 10° ESE daylight
08 Aug - 18:05:46 10° SW 18:11:53 26° S 18:18:04 10° SE daylight
08 Aug - 19:59:55 10° WSW 20:05:07 19° SSW 20:10:17 10° SSE visible
09 Aug - 15:20:12 10° SSW 15:25:02 18° SSE 15:29:57 10° ESE daylight
09 Aug - 17:12:10 10° SW 17:18:11 25° S 17:24:19 10° SE daylight
09 Aug - 19:05:49 10° WSW 19:11:27 22° SSW 19:17:06 10° SE daylight
09 Aug - 21:02:46 10° SW 21:04:28 11° SSW 21:06:10 10° SSW visible
